Lexington, KY

5:38 AM EST on February 23, 2018 (GMT -0500)
Blue Grass

Weather History for KLEX - September, 2013

Change the Weather History Date:

Tuesday, September 10, 2013

  Actual Average Record
Temperature  
Mean Temperature 81 °F 70 °F  
Max Temperature 90 °F 81 °F 97 °F (1900)
Min Temperature 72 °F 60 °F 42 °F (1943)
Degree Days  
Heating Degree Days 0 1  
Month to date heating degree days 0 2  
Since 1 July heating degree days 3 4  
Cooling Degree Days 16 6  
Month to date cooling degree days 95 72  
Year to date cooling degree days 1133 1089  
Growing Degree Days 31 (Base 50)    
Moisture  
Dew Point 71 °F    
Average Humidity 75    
Maximum Humidity 93    
Minimum Humidity 56    
Precipitation  
Precipitation 0.00 in 0.11 in 1.65 in (1960)
Month to date precipitation T 0.96  
Year to date precipitation 43.64 32.63  
Snow  
Snow 0.00 in 0.00 in - ()
Month to date snowfall 0.0 0.0  
Since 1 July snowfall 0.0 0.0  
Since 1 September snowfall 0.0 0.0  
Snow Depth 0.00 in    
Sea Level Pressure  
Sea Level Pressure 30.12 in    
Wind  
Wind Speed 7 mph (SSW)    
Max Wind Speed 14 mph    
Max Gust Speed 18 mph    
Visibility 9 miles    
Events      
T = Trace of Precipitation, MM = Missing Value Source: NWS Daily Summary

Daily Weather History Graph

Daily Weather History Graph

Search for Another Location

Airport or City:

Trip Planner

Search our weather history database for the weather conditions in past years. The results will help you decide how hot, cold, wet, or windy it might be!

Date:

Astronomy

Sep. 10, 2013 Rise Set
Actual Time 7:16 AM EDT 7:53 PM EDT
Civil Twilight 6:49 AM EDT 8:20 PM EDT
Nautical Twilight 6:18 AM EDT 8:51 PM EDT
Astronomical Twilight 5:46 AM EDT 9:23 PM EDT
Moon 12:35 PM EDT (9/10) 11:02 PM EDT (9/10)
Length of Visible Light 13h 30m
Length of Day
12h 37m
Waxing Crescent, 28% of the Moon is Illuminated
Sep 10
Waxing Crescent
Sep 12
First Quarter
Sep 19
Full
Sep 26
Last Quarter
Oct 4
New

Hourly Weather History & Observations

Time (EDT) Temp. Heat Index Dew Point Humidity Pressure Visibility Wind Dir Wind Speed Gust Speed Precip Events Conditions
12:54 AM 73.9 °F - 69.1 °F 85% 30.06 in 9.0 mi South 4.6 mph - N/A   Clear
1:54 AM 73.9 °F - 69.1 °F 85% 30.07 in 8.0 mi South 6.9 mph - N/A   Clear
2:54 AM 73.9 °F - 69.1 °F 85% 30.07 in 8.0 mi South 6.9 mph - N/A   Clear
3:54 AM 73.9 °F - 69.1 °F 85% 30.08 in 9.0 mi South 6.9 mph - N/A   Clear
4:54 AM 73.9 °F - 69.1 °F 85% 30.09 in 8.0 mi SSW 6.9 mph - N/A   Clear
5:54 AM 73.0 °F - 69.1 °F 87% 30.10 in 7.0 mi South 6.9 mph - N/A   Clear
6:54 AM 72.0 °F - 69.1 °F 91% 30.12 in 6.0 mi South 6.9 mph - N/A   Clear
7:54 AM 72.0 °F - 69.1 °F 91% 30.14 in 5.0 mi South 5.8 mph - N/A   Clear
8:54 AM 75.9 °F - 70.0 °F 82% 30.16 in 8.0 mi South 6.9 mph - N/A   Clear
9:54 AM 79.0 °F - 70.0 °F 74% 30.17 in 10.0 mi SSW 11.5 mph - N/A   Clear
10:54 AM 82.0 °F 86.3 °F 71.1 °F 69% 30.17 in 10.0 mi SSW 12.7 mph - N/A   Clear
11:54 AM 84.9 °F 90.7 °F 72.0 °F 65% 30.16 in 10.0 mi South 9.2 mph - N/A   Clear
12:54 PM 87.1 °F 92.8 °F 71.1 °F 59% 30.15 in 10.0 mi SW 6.9 mph - N/A   Clear
1:54 PM 89.1 °F 96.0 °F 72.0 °F 57% 30.15 in 10.0 mi SSW 9.2 mph - N/A   Partly Cloudy
2:54 PM 90.0 °F 96.4 °F 71.1 °F 54% 30.14 in 10.0 mi SSW 10.4 mph - N/A   Partly Cloudy
3:54 PM 89.1 °F 96.0 °F 72.0 °F 57% 30.11 in 10.0 mi SSW 9.2 mph - N/A   Clear
4:54 PM 89.1 °F 95.0 °F 71.1 °F 55% 30.10 in 10.0 mi SSW 6.9 mph - N/A   Clear
5:54 PM 87.1 °F 92.8 °F 71.1 °F 59% 30.10 in 10.0 mi SSW 8.1 mph - N/A   Scattered Clouds
6:54 PM 86.0 °F 93.0 °F 73.0 °F 65% 30.11 in 10.0 mi SSW 5.8 mph - N/A   Clear
7:54 PM 82.9 °F 87.5 °F 71.1 °F 67% 30.12 in 10.0 mi South 3.5 mph - N/A   Clear
8:54 PM 80.1 °F 83.8 °F 72.0 °F 76% 30.14 in 10.0 mi SSW 4.6 mph - N/A   Clear
9:54 PM 79.0 °F - 71.1 °F 77% 30.15 in 10.0 mi South 4.6 mph - N/A   Clear
10:54 PM 78.1 °F - 71.1 °F 79% 30.15 in 9.0 mi South 4.6 mph - N/A   Clear
11:54 PM 75.9 °F - 71.1 °F 85% 30.15 in 8.0 mi SW 4.6 mph - N/A   Partly Cloudy